Flag for Montenegro Weather past 2 weeks in Podgorica, Montenegro

Now
46 °F

Passing clouds.


Feels Like: 41 °F
Forecast: 38 / 53 °F
Wind: 12 mph from North

Location: Podgorica Titograd

Current Time: Jan 25, 2015 at 8:24:31 PM

Latest Report: Jan 25, 2015 at 8:00 PM


Visibility: N/A

Pressure: 29.95 "Hg

Humidity: 46%

Dew point: 27 °F

Location of PodgoricaLocation

Historic Weather in Podgorica — Graph

°F

Podgorica temperature yesterday

Maximum temperature yesterday: 57 °F (at 12:00 PM)
Minimum temperature yesterday: 37 °F (at 6:00 AM)
Average temperature yesterday: 48 °F

Past Weeks' High & Low Weather Summary

 TemperatureHumidityPressure
High57 °F (Jan 16, 2:30 PM)100% (Jan 11, 2:00 AM)30.45 "Hg (Jan 11, 2:00 AM)
Low27 °F (Jan 14, 3:30 AM)26% (Jan 12, 1:00 PM)29.59 "Hg (Jan 24, 2:00 PM)
Average44 °F81%30.03 "Hg
* Reported Jan 10 7:00 PM — Jan 25 7:00 PM, Podgorica, Weather by CustomWeather, © 2014

Note: Actual official high and low records may vary slightly from our data, if they occured in-between our weather recording intervals... More about our weather records

Advertising

Podgorica weather history for previous 24 hours

 ConditionsComfort  
Time TempWeatherWind HumidityBarometerVisibility
7:00 PM
Jan 25
46 °FPassing clouds.15 mph50%29.95 "HgN/A
6:30 PM46 °FPassing clouds.13 mph50%29.92 "HgN/A
6:00 PM46 °FPassing clouds.14 mph50%29.92 "HgN/A
5:30 PM46 °FPassing clouds.12 mph50%29.89 "HgN/A
5:00 PM48 °FPassing clouds.14 mph46%29.89 "HgN/A
4:30 PM48 °FPartly sunny.12 mph46%29.89 "HgN/A
4:00 PM48 °FBroken clouds.12 mph46%29.89 "HgN/A
3:30 PM50 °FBroken clouds.14 mph43%29.86 "HgN/A
3:00 PM50 °FBroken clouds.14 mph47%29.86 "HgN/A
2:30 PM50 °FBroken clouds.14 mph47%29.86 "HgN/A
2:00 PM50 °FBroken clouds.14 mph50%29.86 "HgN/A
1:30 PM50 °FBroken clouds.15 mph50%29.83 "HgN/A
1:00 PM48 °FBroken clouds.14 mph54%29.86 "HgN/A
12:30 PM48 °FBroken clouds.12 mph58%29.86 "HgN/A
12:00 PM48 °FMostly cloudy.8 mph62%29.86 "HgN/A
11:30 AM46 °FMostly cloudy.9 mph66%29.86 "HgN/A
11:00 AM46 °FMostly cloudy.10 mph66%29.86 "HgN/A
10:30 AM46 °FMostly cloudy.15 mph66%29.86 "HgN/A
10:00 AM46 °FMostly cloudy.12 mph66%29.83 "HgN/A
9:30 AM45 °FLight rain. Mostly cloudy.10 mph71%29.83 "HgN/A
9:00 AM45 °FLight rain. Mostly cloudy.10 mph76%29.80 "HgN/A
8:30 AM45 °FLight rain. More clouds than sun.10 mph76%29.80 "HgN/A
8:00 AM45 °FLight rain. More clouds than sun.9 mph76%29.80 "HgN/A
7:30 AM45 °FLight rain. More clouds than sun.7 mph76%29.77 "HgN/A
7:00 AM45 °FMostly cloudy.5 mph71%29.77 "HgN/A
6:30 AM45 °FMostly cloudy.12 mph76%29.74 "HgN/A
6:00 AM45 °FMostly cloudy.6 mph81%29.74 "HgN/A
5:30 AM43 °FLight rain. Mostly cloudy.3 mph93%29.74 "HgN/A
5:00 AM43 °FLight rain. Mostly cloudy.3 mph93%29.71 "HgN/A
4:30 AM43 °FRain. Mostly cloudy.5 mph100%29.71 "HgN/A
4:00 AM45 °FRain. Mostly cloudy.3 mph87%29.71 "HgN/A
3:30 AM45 °FRain. Mostly cloudy.5 mph87%29.71 "HgN/A
3:00 AM45 °FRain. Mostly cloudy.5 mph100%29.71 "HgN/A
2:30 AM46 °FLight rain. Mostly cloudy.5 mph87%29.68 "HgN/A
2:00 AM48 °FLight rain. Mostly cloudy.5 mph71%29.68 "HgN/A
1:30 AM50 °FLight rain. Overcast.9 mph54%29.68 "HgN/A
1:00 AM50 °FPassing clouds.10 mph50%29.68 "HgN/A
12:30 AM50 °FPassing clouds.10 mph54%29.65 "HgN/A
12:00 AM50 °FPassing clouds.6 mph54%29.65 "HgN/A
11:30 PM
Jan 24
50 °FPassing clouds.7 mph58%29.65 "HgN/A
11:00 PM50 °FPassing clouds.7 mph54%29.65 "HgN/A
10:30 PM50 °FPassing clouds.8 mph54%29.65 "HgN/A
10:00 PM50 °FPassing clouds.10 mph54%29.65 "HgN/A
9:30 PM50 °FPassing clouds.8 mph54%29.65 "HgN/A
9:00 PM50 °FPassing clouds.8 mph54%29.65 "HgN/A
8:30 PM50 °FPassing clouds.9 mph58%29.65 "HgN/A
8:00 PM50 °FPassing clouds.10 mph58%29.65 "HgN/A
Weather by CustomWeather, © 2014

See weather overviewHow to use our weather pages